Weather History for Fort Wayne, IN

Change the Weather History Date:

Thursday, June 20, 2013

  Actual Average Record
Temperature  
Mean Temperature 71 °F 72 °F  
Max Temperature 85 °F 82 °F 100 °F (1953)
Min Temperature 56 °F 61 °F 43 °F (1914)
Degree Days  
Heating Degree Days 0 1  
Month to date heating degree days 19 29  
Since 1 June heating degree days 19 29  
Since 1 July heating degree days 6000 6101  
Cooling Degree Days 6 7  
Month to date cooling degree days 85 102  
Year to date cooling degree days 190 159  
Since 1 June cooling degree days 85 102  
Growing Degree Days 20 (Base 50)    
Moisture  
Dew Point 58 °F    
Average Humidity 67    
Maximum Humidity 86    
Minimum Humidity 47    
Precipitation  
Precipitation 0.00 in 0.13 in 1.87 in (1942)
Month to date precipitation 2.38 2.90  
Year to date precipitation 20.05 17.70  
Snow  
Snow 0.00 in 0.00 in 0.00 in ()
Month to date snowfall 0.0 0.0  
Since 1 June snowfall 0.0 0.0  
Since 1 July snowfall 38.5 33.5  
Snow Depth 0.00 in    
Sea Level Pressure  
Sea Level Pressure 30.17 in    
Wind  
Wind Speed 3 mph (ESE)    
Max Wind Speed 8 mph    
Max Gust Speed 12 mph    
Visibility 10 miles    
Events      
T = Trace of Precipitation, MM = Missing Value Source: NWS Daily Summary

Daily Weather History Graph

Daily Weather History Graph

Search for Another Location

Airport:

Trip Planner

Search our weather history database for the weather conditions in past years. The results will help you decide how hot, cold, wet, or windy it might be!

Date:

Astronomy

Jun. 20, 2013 Rise Set
Actual Time 6:08 AM EDT 9:16 PM EDT
Civil Twilight 5:35 AM EDT 9:49 PM EDT
Nautical Twilight 4:52 AM EDT 10:32 PM EDT
Astronomical Twilight 4:00 AM EDT 11:23 PM EDT
Moon 6:16 PM EDT 3:35 AM EDT
Length of Visible Light 16h 14m
Length of Day
15h 07m
Waxing Gibbous, 89% of the Moon is Illuminated
Jun 20
Waxing Gibbous
Jun 23
Full
Jun 30
Last Quarter
Jul 8
New
Jul 15
First Quarter

Hourly Weather History & Observations

Time (EDT) Temp. Heat Index Dew Point Humidity Pressure Visibility Wind Dir Wind Speed Gust Speed Precip Events Conditions
12:54 AM 61.0 °F - 52.0 °F 72% 30.14 in 10.0 mi ESE 6.9 mph - N/A   Partly Cloudy
1:54 AM 60.1 °F - 52.0 °F 75% 30.15 in 10.0 mi ESE 5.8 mph - N/A   Scattered Clouds
2:54 AM 57.0 °F - 51.1 °F 81% 30.16 in 10.0 mi East 4.6 mph - N/A   Scattered Clouds
3:54 AM 57.0 °F - 52.0 °F 83% 30.16 in 10.0 mi Calm Calm - N/A   Scattered Clouds
4:54 AM 57.0 °F - 52.0 °F 83% 30.16 in 10.0 mi ENE 3.5 mph - N/A   Scattered Clouds
5:54 AM 55.9 °F - 52.0 °F 87% 30.18 in 10.0 mi ENE 3.5 mph - N/A   Scattered Clouds
6:54 AM 57.9 °F - 53.1 °F 84% 30.19 in 10.0 mi East 3.5 mph - N/A   Mostly Cloudy
7:54 AM 61.0 °F - 55.0 °F 81% 30.19 in 10.0 mi ESE 3.5 mph - N/A   Scattered Clouds
8:54 AM 66.0 °F - 55.9 °F 70% 30.20 in 10.0 mi ESE 3.5 mph - N/A   Scattered Clouds
9:54 AM 72.0 °F - 57.0 °F 59% 30.20 in 10.0 mi South 3.5 mph - N/A   Scattered Clouds
10:54 AM 77.0 °F - 57.9 °F 52% 30.20 in 10.0 mi Calm Calm - N/A   Mostly Cloudy
11:54 AM 80.1 °F 80.9 °F 60.1 °F 50% 30.19 in 10.0 mi SW 4.6 mph - N/A   Mostly Cloudy
12:54 PM 80.1 °F 80.7 °F 59.0 °F 48% 30.19 in 10.0 mi SW 6.9 mph - N/A   Mostly Cloudy
1:54 PM 82.0 °F 82.7 °F 61.0 °F 49% 30.19 in 10.0 mi Variable 5.8 mph - N/A   Mostly Cloudy
2:54 PM 82.9 °F 84.0 °F 63.0 °F 51% 30.18 in 10.0 mi Variable 3.5 mph - N/A   Mostly Cloudy
3:54 PM 82.9 °F 83.7 °F 62.1 °F 49% 30.18 in 10.0 mi Calm Calm - N/A   Mostly Cloudy
4:54 PM 82.0 °F 83.0 °F 62.1 °F 51% 30.17 in 10.0 mi NW 3.5 mph - N/A   Scattered Clouds
5:54 PM 84.9 °F 85.4 °F 62.1 °F 46% 30.15 in 10.0 mi Calm Calm - N/A   Scattered Clouds
6:54 PM 82.9 °F 83.7 °F 62.1 °F 49% 30.14 in 10.0 mi Calm Calm - N/A   Partly Cloudy
7:54 PM 82.0 °F 82.7 °F 61.0 °F 49% 30.14 in 10.0 mi SSW 3.5 mph - N/A   Partly Cloudy
8:54 PM 78.1 °F - 64.0 °F 62% 30.14 in 10.0 mi East 3.5 mph - N/A   Partly Cloudy
9:54 PM 75.0 °F - 63.0 °F 66% 30.14 in 10.0 mi East 4.6 mph - N/A   Partly Cloudy
10:54 PM 73.0 °F - 63.0 °F 71% 30.16 in 10.0 mi ESE 4.6 mph - N/A   Partly Cloudy
11:54 PM 70.0 °F - 63.0 °F 78% 30.17 in 10.0 mi Calm Calm - N/A   Partly Cloudy